This is the latest recevied weather packets stored in our database for station/object LU8AQL-WX. If no packets are shown the sender has not sent any weather packets the latest 10 day(s).
| Time | Temp. | Humidity | Pressure | Rain* | Wind** | Luminosity | Snow |
|---|---|---|---|---|---|---|---|
| 1778142469 | 17.22° C | 95% | 1000 hPa | 0 mm | - | - | - |
| 1778141868 | 17.22° C | 94% | 1000 hPa | 0 mm | - | - | - |
| 1778141267 | 17.78° C | 92% | 1000 hPa | 0.25 mm | - | - | - |
| 1778140666 | 17.78° C | 92% | 1000 hPa | 0 mm | - | - | - |
| 1778140065 | 17.78° C | 92% | 1000 hPa | 0 mm | - | - | - |
| 1778139464 | 17.78° C | 92% | 1000 hPa | 0 mm | - | - | - |
| 1778138863 | 17.78° C | 93% | 1000 hPa | 0 mm | - | - | - |
| 1778138262 | 17.78° C | 94% | 1000 hPa | 0 mm | - | - | - |
| 1778137662 | 17.78° C | 95% | 1000 hPa | 0 mm | - | - | - |
| 1778137060 | 17.78° C | 97% | 1000 hPa | 0.25 mm | - | - | - |
| 1778136459 | 17.78° C | 97% | 1000 hPa | 0 mm | - | - | - |
| 1778135858 | 17.78° C | 97% | 1000 hPa | 0.25 mm | - | - | - |
| 1778135257 | 17.78° C | 97% | 1001 hPa | 0.25 mm | - | - | - |
| 1778134657 | 17.78° C | 97% | 1001 hPa | 0 mm | - | - | - |
| 1778134056 | 17.78° C | 97% | 1001 hPa | 0.25 mm | - | - | - |
| 1778133455 | 17.78° C | 97% | 1001 hPa | 0.25 mm | - | - | - |
| 1778132854 | 17.78° C | 97% | 1001 hPa | 0 mm | - | - | - |
| 1778132253 | 17.78° C | 97% | 1001 hPa | 0.76 mm | - | - | - |
| 1778131652 | 17.78° C | 97% | 1001 hPa | 0.76 mm | - | - | - |
| 1778131051 | 17.78° C | 97% | 1001 hPa | 0 mm | - | - | - |
| 1778130450 | 17.78° C | 97% | 1001 hPa | 0 mm | - | - | - |
| 1778129849 | 17.78° C | 98% | 1001 hPa | 2.29 mm | - | - | - |
| 1778129248 | 18.33° C | 97% | 1001 hPa | 2.54 mm | - | - | - |
| 1778128647 | 18.89° C | 94% | 1001 hPa | 1.52 mm | - | - | - |
| 1778128046 | 19.44° C | 91% | 1001 hPa | 0.51 mm | - | - | - |
* Rain latest hour (hover to see other rain measurements)
** Current wind speed in m/s (hover to see current wind gust speed)